Flag for United Arab Emirates Weather past 2 weeks in Dubai, Dubai, United Arab Emirates

Now
95 °F

Passing clouds.


Feels Like: 113 °F
Forecast: 85 / 101 °F
Wind: 8 mph from Southeast

Location: Dubai International Airport

Current Time: Jul 23, 2014 at 9:33:58 AM

Latest Report: Jul 23, 2014 at 9:00 AM


Visibility: N/A

Pressure: 29.45 "Hg

Humidity: 60%

Dew point: 79 °F

Location of DubaiLocation

Historic Weather in Dubai — Graph

°F

Dubai temperature yesterday

Maximum temperature yesterday: 102 °F (at 11:01 AM)
Minimum temperature yesterday: 88 °F (at 6:00 AM)
Average temperature yesterday: 96 °F

Past Weeks' High & Low Weather Summary

 TemperatureHumidityPressure
High109 °F (Jul 14, 12:00 PM)94% (Jul 11, 5:00 AM)29.53 "Hg (Jul 11, 5:00 AM)
Low84 °F (Jul 11, 7:00 AM)19% (Jul 20, 11:00 AM)29.33 "Hg (Jul 18, 5:00 PM)
Average96 °F59%29.43 "Hg
* Reported Jul 8 7:00 AM — Jul 23 7:00 AM, Dubai, Weather by CustomWeather, © 2014

Note: Actual official high and low records may vary slightly from our data, if they occured in-between our weather recording intervals... More about our weather records

Advertising

Dubai weather history for previous 24 hours

 ConditionsComfort  
Time TempWeatherWind HumidityBarometerVisibility
7:00 AM
Jul 23
88 °FSunny.10 mph75%29.45 "Hg10 mi
6:00 AM88 °FSunny.10 mph79%29.45 "Hg10 mi
5:00 AM88 °FClear.10 mph84%29.42 "Hg10 mi
4:00 AM90 °FPassing clouds.9 mph79%29.42 "HgN/A
9:00 PM
Jul 22
95 °FClear.8 mph60%29.45 "Hg10 mi
8:00 PM95 °FPassing clouds.8 mph63%29.42 "HgN/A
7:00 PM97 °FSunny.10 mph56%29.42 "Hg10 mi
6:00 PM99 °FPassing clouds.13 mph53%29.42 "HgN/A
5:00 PM102 °FPassing clouds.10 mph42%29.39 "HgN/A
4:00 PM102 °FPassing clouds.10 mph35%29.42 "HgN/A
3:00 PM100 °FPassing clouds.14 mph50%29.42 "HgN/A
2:00 PM100 °FPassing clouds.15 mph50%29.42 "HgN/A
1:00 PM102 °FSunny.12 mph42%29.45 "Hg10 mi
12:00 PM102 °FPassing clouds.10 mph37%29.45 "HgN/A
11:01 AM102 °FSunny.12 mph33%29.47 "Hg10 mi
11:00 AM100 °FPassing clouds.7 mph37%29.47 "HgN/A
10:00 AM97 °FPassing clouds.7 mph44%29.47 "HgN/A
9:00 AM95 °FPassing clouds.8 mph53%29.47 "HgN/A
Weather by CustomWeather, © 2014

See weather overviewHow to use our weather pages